False Pass, AK

9:45 PM HDT on May 28, 2017 (GMT -0900)
False Pass

Weather History for PAKF - November, 2013

Change the Weather History Date:

Thursday, November 28, 2013

  Actual Average (PACD) Record (PACD)
Temperature  
Mean Temperature 32 °F -  
Max Temperature 35 °F 35 °F 50 °F (2004)
Min Temperature 30 °F 27 °F 1 °F (1963)
Degree Days  
Heating Degree Days 32    
Moisture  
Dew Point 25 °F    
Average Humidity 74    
Maximum Humidity 89    
Minimum Humidity 64    
Precipitation  
Precipitation 0.00 in - - ()
Sea Level Pressure  
Sea Level Pressure 30.30 in    
Wind  
Wind Speed 18 mph (NW)    
Max Wind Speed 23 mph    
Max Gust Speed 34 mph    
Visibility 10 miles    
Events Snow    
Averages and records for this station are not official NWS values.
T = Trace of Precipitation, MM = Missing Value Source: NWS Daily Summary

Daily Weather History Graph

Daily Weather History Graph

Search for Another Location

Airport or City:

Trip Planner

Search our weather history database for the weather conditions in past years. The results will help you decide how hot, cold, wet, or windy it might be!

Date:

Astronomy

Nov. 28, 2013 Rise Set
Actual Time 8:49 AM HST 4:33 PM HST
Civil Twilight 8:06 AM HST 5:16 PM HST
Nautical Twilight 7:20 AM HST 6:02 PM HST
Astronomical Twilight 6:37 AM HST 6:45 PM HST
Moon 3:22 AM HST (11/28) 2:27 PM HST (11/28)
Length of Visible Light 9h 09m
Length of Day
7h 43m
Waning Crescent, 21% of the Moon is Illuminated
Nov 28
Waning Crescent
Dec 2
New
Dec 9
First Quarter
Dec 16
Full
Dec 25
Last Quarter

Hourly Weather History & Observations

Time (HST) Temp. Windchill Dew Point Humidity Pressure Visibility Wind Dir Wind Speed Gust Speed Precip Events Conditions
12:01 AM 33.1 °F 22.2 °F 30.0 °F 89% 30.28 in 4.0 mi NW 17.3 mph 24.2 mph 0.00 in Snow Light Snow
12:30 AM 33.8 °F 23.2 °F 30.2 °F 87% 29.99 in 10.0 mi NW 17.3 mph 23.0 mph 0.00 in   Overcast
1:01 AM 33.1 °F 22.6 °F 28.9 °F 85% 30.27 in 10.0 mi NW 16.1 mph - 0.00 in   Overcast
2:01 AM 33.1 °F 21.9 °F 28.0 °F 82% 30.27 in 10.0 mi WNW 18.4 mph 25.3 mph 0.00 in   Overcast
3:01 AM 33.1 °F 22.6 °F 25.0 °F 72% 30.28 in 10.0 mi NW 16.1 mph 26.5 mph 0.00 in   Overcast
4:01 AM 33.1 °F 21.9 °F 26.1 °F 75% 30.27 in 10.0 mi WNW 18.4 mph 26.5 mph N/A   Overcast
5:01 AM 34.0 °F 23.8 °F 25.0 °F 70% 30.26 in 10.0 mi West 16.1 mph 25.3 mph N/A   Overcast
6:01 AM 33.8 °F 23.2 °F 26.6 °F 75% 29.99 in 10.0 mi NW 17.3 mph 31.1 mph 0.00 in   Overcast
6:11 AM 33.8 °F 22.8 °F 26.6 °F 75% 30.00 in 10.0 mi NW 18.4 mph 28.8 mph 0.00 in   Overcast
7:01 AM 33.8 °F 22.2 °F 26.6 °F 75% 30.01 in 10.0 mi NW 20.7 mph 27.6 mph 0.00 in   Overcast
7:07 AM 32.0 °F 19.5 °F 26.1 °F 79% 30.30 in 10.0 mi NW 21.9 mph 29.9 mph 0.00 in   Overcast
8:01 AM 32.0 °F 20.1 °F 26.1 °F 79% 30.31 in 10.0 mi NW 19.6 mph 28.8 mph N/A   Overcast
9:01 AM 32.0 °F 19.2 °F 25.0 °F 75% 30.33 in 10.0 mi NW 23.0 mph 28.8 mph N/A   Overcast
10:01 AM 33.1 °F 21.5 °F 25.0 °F 72% 30.36 in 10.0 mi NW 19.6 mph 25.3 mph N/A   Overcast
10:14 AM 33.8 °F 22.8 °F 24.8 °F 70% 30.08 in 10.0 mi WNW 18.4 mph 26.5 mph N/A   Overcast
10:22 AM 33.8 °F 22.2 °F 24.8 °F 70% 30.08 in 10.0 mi WNW 20.7 mph 26.5 mph N/A   Overcast
11:01 AM 33.1 °F 21.9 °F 23.0 °F 66% 30.38 in 10.0 mi WNW 18.4 mph 31.1 mph N/A   Overcast
12:01 PM 35.1 °F 24.5 °F 24.1 °F 64% 30.40 in 10.0 mi NW 18.4 mph 23.0 mph N/A   Overcast
1:01 PM 33.1 °F 21.9 °F 24.1 °F 70% 30.41 in 10.0 mi NNW 18.4 mph 29.9 mph N/A   Partly Cloudy
2:01 PM 32.0 °F 20.1 °F 23.0 °F 69% 30.42 in 10.0 mi NNW 19.6 mph 29.9 mph N/A   Overcast
3:01 PM 30.9 °F 19.1 °F 23.0 °F 72% 30.42 in 10.0 mi NW 18.4 mph 24.2 mph N/A   Overcast
4:01 PM 30.9 °F 19.1 °F 23.0 °F 72% 30.43 in 10.0 mi WNW 18.4 mph 25.3 mph N/A   Scattered Clouds
5:01 PM 30.9 °F 18.4 °F 23.0 °F 72% 30.44 in 10.0 mi WNW 20.7 mph 34.5 mph N/A   Clear
6:01 PM 30.0 °F 19.5 °F 23.0 °F 75% 30.45 in 10.0 mi West 13.8 mph 23.0 mph N/A   Clear
6:37 PM 30.2 °F 17.8 °F 23.0 °F 75% 30.18 in 10.0 mi WNW 19.6 mph 27.6 mph N/A   Mostly Cloudy
6:59 PM 30.2 °F 17.8 °F 21.2 °F 69% 30.19 in 10.0 mi WNW 19.6 mph 28.8 mph N/A   Scattered Clouds
7:01 PM 30.0 °F 19.1 °F 21.9 °F 72% 30.48 in 10.0 mi WNW 15.0 mph 28.8 mph N/A   Partly Cloudy
8:01 PM 30.0 °F 17.9 °F 21.9 °F 72% 30.50 in 10.0 mi WNW 18.4 mph 27.6 mph N/A   Clear
9:01 PM 30.0 °F 18.3 °F 21.0 °F 69% 30.52 in 10.0 mi WNW 17.3 mph 25.3 mph N/A   Clear
10:01 PM 30.0 °F 17.9 °F 21.9 °F 72% 30.54 in 10.0 mi NW 18.4 mph 29.9 mph N/A   Overcast
11:01 PM 30.0 °F 17.5 °F 21.9 °F 72% 30.56 in 10.0 mi NW 19.6 mph 25.3 mph N/A   Overcast
11:58 PM 30.2 °F 18.1 °F 23.0 °F 75% 30.27 in 10.0 mi NW 18.4 mph 23.0 mph N/A   Scattered Clouds